Madison, SD

9:49 AM CST on December 08, 2019 (GMT -0600)
Madison Municipal

Weather History for KMDS - November, 2019

Change the Weather History Date:

Sunday, November 17, 2019

  Actual Average Record
Temperature  
Mean Temperature 32 °F -  
Max Temperature 37 °F 42 °F 55 °F (2012)
Min Temperature 28 °F 22 °F 0 °F (2014)
Degree Days  
Heating Degree Days 32    
Moisture  
Dew Point 35 °F    
Average Humidity 100    
Maximum Humidity 100    
Minimum Humidity 100    
Precipitation  
Precipitation 0.00 in - - ()
Sea Level Pressure  
Sea Level Pressure 29.93 in    
Wind  
Wind Speed 9 mph ()    
Max Wind Speed 17 mph    
Max Gust Speed 23 mph    
Visibility 10.0 miles    
Events      
Averages and records for this station are not official NWS values.
T = Trace of Precipitation, MM = Missing Value Source: Averaged Metar Reports

Daily Weather History Graph

Daily Weather History Graph

Search for Another Location

Airport or City:

Astronomy

Nov. 17, 2019 Rise Set
Actual Time 7:25 AM CST 5:00 PM CST
Civil Twilight 6:54 AM CST 5:31 PM CST
Nautical Twilight 6:19 AM CST 6:06 PM CST
Astronomical Twilight 5:45 AM CST 6:40 PM CST
Moon 9:35 PM CST (11/17) 12:15 PM CST (11/17)
Length of Visible Light 10h 37m
Length of Day
9h 34m
Waning Gibbous, 73% of the Moon is Illuminated
Nov 17
Waning Gibbous
Nov 19
Last Quarter
Nov 26
New
Dec 4
First Quarter
Dec 11
Full

Hourly Weather History & Observations

Time (CST) Temp. Windchill Dew Point Humidity Pressure Visibility Wind Dir Wind Speed Gust Speed Precip Events Conditions
12:35 AM 37.4 °F 30.3 °F 37.4 °F 100% 29.98 in 10.0 mi NW 10.4 mph - N/A   Overcast
12:55 AM 37.4 °F 29.8 °F 37.4 °F 100% 29.98 in 10.0 mi NW 11.5 mph - N/A   Overcast
1:15 AM 37.4 °F 30.8 °F 37.4 °F 100% 29.98 in 10.0 mi NW 9.2 mph - N/A   Overcast
1:35 AM 37.4 °F 32.1 °F 37.4 °F 100% 29.98 in 10.0 mi NW 6.9 mph - N/A   Overcast
1:55 AM 37.4 °F 31.4 °F 37.4 °F 100% 29.97 in 10.0 mi WNW 8.1 mph - N/A   Overcast
2:15 AM 37.4 °F 31.4 °F 37.4 °F 100% 29.97 in 10.0 mi WNW 8.1 mph - N/A   Overcast
2:35 AM 37.4 °F 30.8 °F 37.4 °F 100% 29.97 in 10.0 mi WNW 9.2 mph - N/A   Overcast
2:55 AM 37.4 °F 30.3 °F 37.4 °F 100% 29.97 in 10.0 mi WNW 10.4 mph - N/A   Overcast
3:15 AM 37.4 °F 30.8 °F 37.4 °F 100% 29.97 in 10.0 mi WNW 9.2 mph - N/A   Overcast
3:35 AM 37.4 °F 29.8 °F 37.4 °F 100% 29.98 in 10.0 mi WNW 11.5 mph - N/A   Overcast
3:55 AM 37.4 °F 30.8 °F 37.4 °F 100% 29.98 in 10.0 mi WNW 9.2 mph - N/A   Overcast
4:15 AM 37.4 °F 29.3 °F 37.4 °F 100% 29.97 in 10.0 mi WNW 12.7 mph - N/A   Overcast
4:35 AM 37.4 °F 29.3 °F 37.4 °F 100% 29.97 in 10.0 mi WNW 12.7 mph - N/A   Overcast
4:55 AM 37.4 °F 29.8 °F 37.4 °F 100% 29.97 in 10.0 mi WNW 11.5 mph - N/A   Overcast
5:15 AM 37.4 °F 29.8 °F 37.4 °F 100% 29.97 in 10.0 mi NW 11.5 mph - N/A   Overcast
5:35 AM 37.4 °F 29.3 °F 37.4 °F 100% 29.97 in 10.0 mi NW 12.7 mph - N/A   Overcast
5:55 AM 35.6 °F 26.6 °F 35.6 °F 100% 29.97 in 10.0 mi NW 13.8 mph - N/A   Overcast
6:15 AM 35.6 °F 27.1 °F 35.6 °F 100% 29.97 in 10.0 mi NNW 12.7 mph - N/A   Overcast
6:35 AM 35.6 °F 27.1 °F 35.6 °F 100% 29.97 in 10.0 mi NW 12.7 mph - N/A   Overcast
6:55 AM 35.6 °F 27.1 °F 35.6 °F 100% 29.97 in 10.0 mi NW 12.7 mph - N/A   Overcast
7:15 AM 35.6 °F 27.1 °F 35.6 °F 100% 29.98 in 10.0 mi NNW 12.7 mph - N/A   Overcast
7:35 AM 35.6 °F 27.5 °F 35.6 °F 100% 29.98 in 10.0 mi NNW 11.5 mph - N/A   Overcast
7:55 AM 35.6 °F 28.0 °F 35.6 °F 100% 29.98 in 10.0 mi NNW 10.4 mph - N/A   Overcast
8:15 AM 35.6 °F 29.2 °F 35.6 °F 100% 29.98 in 10.0 mi NW 8.1 mph - N/A   Overcast
8:35 AM 35.6 °F 28.6 °F 35.6 °F 100% 29.98 in 10.0 mi NW 9.2 mph - N/A   Overcast
8:55 AM 35.6 °F 27.5 °F 35.6 °F 100% 29.99 in 10.0 mi NNW 11.5 mph - N/A   Overcast
9:15 AM 35.6 °F 27.5 °F 35.6 °F 100% 29.99 in 10.0 mi NW 11.5 mph - N/A   Overcast
9:35 AM 35.6 °F 28.0 °F 35.6 °F 100% 29.99 in 10.0 mi NNW 10.4 mph - N/A   Overcast
9:55 AM 35.6 °F 25.5 °F 35.6 °F 100% 29.98 in 10.0 mi NNW 17.3 mph 21.9 mph N/A   Overcast
10:15 AM 35.6 °F 25.9 °F 35.6 °F 100% 29.99 in 10.0 mi NNW 16.1 mph 23.0 mph N/A   Overcast
10:35 AM 35.6 °F 26.6 °F 35.6 °F 100% 29.98 in 10.0 mi NNW 13.8 mph 19.6 mph N/A   Overcast
10:55 AM 35.6 °F 25.9 °F 35.6 °F 100% 29.98 in 10.0 mi NNW 16.1 mph - N/A   Overcast
11:15 AM 35.6 °F 27.5 °F 35.6 °F 100% 29.98 in 10.0 mi NNW 11.5 mph - N/A   Overcast
11:35 AM 35.6 °F 26.6 °F 35.6 °F 100% 29.97 in 10.0 mi NW 13.8 mph 19.6 mph N/A   Overcast
11:55 AM 35.6 °F 26.6 °F 35.6 °F 100% 29.97 in 10.0 mi NNW 13.8 mph 18.4 mph N/A   Overcast
12:15 PM 35.6 °F 27.1 °F 35.6 °F 100% 29.97 in 10.0 mi NW 12.7 mph - N/A   Overcast
12:35 PM 35.6 °F 26.6 °F 35.6 °F 100% 29.96 in 10.0 mi NW 13.8 mph - N/A   Overcast
12:55 PM 35.6 °F 26.6 °F 35.6 °F 100% 29.96 in 10.0 mi NW 13.8 mph - N/A   Overcast
1:15 PM 35.6 °F 27.1 °F 35.6 °F 100% 29.95 in 10.0 mi NNW 12.7 mph 20.7 mph N/A   Overcast
1:35 PM 35.6 °F 25.9 °F 35.6 °F 100% 29.95 in 10.0 mi NW 16.1 mph - N/A   Overcast
1:55 PM 35.6 °F 26.2 °F 35.6 °F 100% 29.94 in 10.0 mi NW 15.0 mph 18.4 mph N/A   Overcast
2:15 PM 35.6 °F 26.6 °F 35.6 °F 100% 29.94 in 10.0 mi NW 13.8 mph - N/A   Overcast
2:35 PM 35.6 °F 26.6 °F 35.6 °F 100% 29.93 in 10.0 mi NW 13.8 mph 18.4 mph N/A   Overcast
2:55 PM 35.6 °F 28.0 °F 35.6 °F 100% 29.93 in 10.0 mi NW 10.4 mph - N/A   Overcast
3:15 PM 35.6 °F 26.2 °F 35.6 °F 100% 29.93 in 10.0 mi NW 15.0 mph - N/A   Overcast
3:35 PM 35.6 °F 27.5 °F 35.6 °F 100% 29.92 in 10.0 mi NW 11.5 mph - N/A   Overcast
3:55 PM 35.6 °F 29.9 °F 35.6 °F 100% 29.92 in 10.0 mi NW 6.9 mph - N/A   Overcast
4:15 PM 35.6 °F 31.7 °F 35.6 °F 100% 29.91 in 10.0 mi NW 4.6 mph - N/A   Overcast
4:35 PM 35.6 °F 31.7 °F 35.6 °F 100% 29.90 in 10.0 mi NW 4.6 mph - N/A   Overcast
4:55 PM 35.6 °F - 35.6 °F 100% 29.90 in 10.0 mi Calm Calm - N/A   Overcast
5:15 PM 35.6 °F 32.8 °F 35.6 °F 100% 29.90 in 10.0 mi NW 3.5 mph - N/A   Overcast
5:55 PM 35.6 °F 29.9 °F 35.6 °F 100% 29.90 in 10.0 mi WNW 6.9 mph - N/A   Overcast
6:15 PM 35.6 °F - 35.6 °F 100% 29.89 in 10.0 mi Calm Calm - N/A   Scattered Clouds
6:35 PM 33.8 °F - 33.8 °F 100% 29.89 in 10.0 mi Calm Calm - N/A   Scattered Clouds
6:55 PM 33.8 °F - 33.8 °F 100% 29.88 in 10.0 mi Calm Calm - N/A   Partly Cloudy
7:15 PM 32.0 °F 28.7 °F 32.0 °F 100% 29.87 in 10.0 mi SSW 3.5 mph - N/A   Clear
7:35 PM 32.0 °F 27.5 °F 32.0 °F 100% 29.86 in 10.0 mi South 4.6 mph - N/A   Clear
7:55 PM 32.0 °F 27.5 °F 32.0 °F 100% 29.85 in 10.0 mi South 4.6 mph - N/A   Clear
8:15 PM 32.0 °F 27.5 °F 32.0 °F 100% 29.85 in 10.0 mi SSW 4.6 mph - N/A   Clear
8:35 PM 30.2 °F 25.4 °F 30.2 °F 100% 29.84 in 10.0 mi South 4.6 mph - N/A   Clear
8:55 PM 32.0 °F 26.4 °F 32.0 °F 100% 29.83 in 10.0 mi South 5.8 mph - N/A   Clear
9:15 PM 32.0 °F 27.5 °F 32.0 °F 100% 29.83 in 10.0 mi SSE 4.6 mph - N/A   Clear
9:35 PM 32.0 °F 27.5 °F 32.0 °F 100% 29.83 in 10.0 mi SSE 4.6 mph - N/A   Clear
9:55 PM 28.4 °F 21.2 °F 28.4 °F 100% 29.82 in 10.0 mi South 6.9 mph - N/A   Clear
10:15 PM 30.2 °F 22.6 °F 30.2 °F 100% 29.80 in 10.0 mi South 8.1 mph - N/A   Clear
10:35 PM 32.0 °F 23.6 °F 32.0 °F 100% 29.79 in 10.0 mi South 10.4 mph - N/A   Clear
10:55 PM 32.0 °F 24.2 °F 32.0 °F 100% 29.78 in 10.0 mi South 9.2 mph - N/A   Clear
11:15 PM 32.0 °F 24.8 °F 32.0 °F 100% 29.78 in 10.0 mi South 8.1 mph - N/A   Clear
11:35 PM 32.0 °F 23.6 °F 32.0 °F 100% 29.77 in 10.0 mi South 10.4 mph - N/A   Clear
11:55 PM 32.0 °F 23.6 °F 32.0 °F 100% 29.76 in 10.0 mi South 10.4 mph - N/A   Clear